STARLINK-1587, 46157

Orbit data source: Space-Track

STARLINK-1587, 46157 is a payload satellite owned by SpaceX/Seattle (US) in LEO that was launched on Tue, 18 Aug 2020 UTC via an FALCON 9 launch vehicle from the Air Force Eastern Test Range (AFETR). Payload-class satellites include a variety of spacecraft equipped with specific instruments for various scientific and technological missions. These include communications satellites like Starlink; space stations such as the ISS; scientific satellites like the Hubble; Earth observation satellites from companies like Planet Labs, Umbra, and HawkEye 360; GPS; miniature CubeSats for education and research; and military/defense satellites.

Loading next visibility...
Identifier
46157, 2020-057AS
Orbit
LEO
Country
Flag of USUS
Related business
Manufacturer
SpaceX/Seattle
Mission
Partially operational Commercial Communications
Bus & Motor
STARLINK, Unknown motor
Mass
260 kg wet, ~248 kg dry
Launch date (UTC)
2020-08-18 (5 years ago)
Launch vehicle
FALCON 9
Launch site
Air Force Eastern Test Range (AFETR)
Object type
Payload
Rocket body
Debris
Shape & HBR
Box + 1 Pan, 10.1 m
Radar Cross Section
13.562 m², Large (>1 m²)

Expand to show TLE details & history
Last TLE update: 3 hours ago

TLE from 3 hours ago
0 STARLINK-1587
1 46157U 20057AS  25303.91668980  .00156759  00000-0  37331-2 0  9999
2 46157  53.0517 130.6211 0007263 183.7982  58.3072 15.40526167  5878
Epoch: 2025-10-30T22:00Z
TLE epoch observation values (Epoch: 2025-10-30T22:00:01.998Z)
Latitude
-45.16516°
Longitude
-10.06613°
Altitude
457.236 km
Speed
7.639 km/s
True Right ascension
23h 57m 38s
True Declination
-44° 59' 08"
Sunlit
Object was in full shadow at epoch
Visualization orbit readout
Latitude
Unknown
Longitude
Unknown
Altitude
Unknown
Speed
Unknown
Apparent Right ascension
Unknown
Apparent Declination
Unknown
Sunlit
N/A
Visualization observer readout
Local Sidereal Time
20:35:47
Azimuth
Unknown
Elevation
Unknown
Doppler factor
Unknown
Orbital elements
Apogee altitude
449.786 km
Perigee altitude
439.875 km
Semi-major axis
6,822.967 km
Eccentricity
0.00073
Inclination
53.0517°
RAAN
130.6211°
Arg. of periapsis
183.7982°
True anomaly
58.37805°
Mean anomaly
58.3072°
Eccentric anomaly
58.34262°
Mean motion
3.85109 °/min
Orbital period
93.48 mins
BSTAR
0.0037331
Loading maneuver chart data...
Computing Atmospheric mass density...
Loading historical data...
Loading historical data...
Loading historical data...
Loading historical data...
Loading historical data...
Loading historical data...
Loading historical data...

Documentation

Showing up to 5 results
|